STARLINK-2530, 48303

Orbit data source: Space-Track

STARLINK-2530, 48303 is a payload satellite owned by SpaceX/Seattle (US) in LEO that was launched on Thu, 29 Apr 2021 UTC via an FALCON 9 launch vehicle from the Air Force Eastern Test Range (AFETR). Payload-class satellites include a variety of spacecraft equipped with specific instruments for various scientific and technological missions. These include communications satellites like Starlink; space stations such as the ISS; scientific satellites like the Hubble; Earth observation satellites from companies like Planet Labs, Umbra, and HawkEye 360; GPS; miniature CubeSats for education and research; and military/defense satellites.

Loading next visibility...
Identifier
48303, 2021-036AD
Orbit
LEO
Country
Flag of USUS
Related business
Manufacturer
SpaceX/Seattle
Mission
Operational Commercial Communications
Bus & Motor
STARLINK, Unknown motor
Mass
260 kg wet, ~248 kg dry
Launch date (UTC)
2021-04-29 (5 years ago)
Launch vehicle
FALCON 9
Launch site
Air Force Eastern Test Range (AFETR)
Object type
Payload
Rocket body
Debris
Shape & HBR
Box + 1 Pan, 10.1 m
Radar Cross Section
13.562 m², Large (>1 m²)

Expand to show TLE details & history
Last TLE update: 20 hours ago

TLE from 20 hours ago
0 STARLINK-2530
1 48303U 21036AD  25352.56228445 -.00000287  00000-0 -38370-6 0  9999
2 48303  53.0565  96.3521 0001178  83.7372 276.3751 15.06396123255938
Epoch: 2025-12-18T13:29Z
TLE epoch observation values (Epoch: 2025-12-18T13:29:41.376Z)
Latitude
-0.00004°
Longitude
166.51366°
Altitude
548.012 km
Speed
7.589 km/s
True Right ascension
06h 25m 24s
True Declination
0° 00' 00"
Sunlit
Object was in full shadow at epoch
Visualization orbit readout
Latitude
Unknown
Longitude
Unknown
Altitude
Unknown
Speed
Unknown
Apparent Right ascension
Unknown
Apparent Declination
Unknown
Sunlit
N/A
Visualization observer readout
Local Sidereal Time
08:24:38
Azimuth
Unknown
Elevation
Unknown
Doppler factor
Unknown
Orbital elements
Apogee altitude
548.31 km
Perigee altitude
546.678 km
Semi-major axis
6,925.631 km
Eccentricity
0.00012
Inclination
53.0565°
RAAN
96.3521°
Arg. of periapsis
83.7372°
True anomaly
276.36168°
Mean anomaly
276.3751°
Eccentric anomaly
276.36839°
Mean motion
3.76577 °/min
Orbital period
95.6 mins
BSTAR
-3.837e-7
Loading maneuver chart data...
Computing Atmospheric mass density...
Loading historical data...
Loading historical data...
Loading historical data...
Loading historical data...
Loading historical data...
Loading historical data...
Loading historical data...

Documentation

Showing up to 5 results
|